Geely Xingzuo 03 zu 10 xing

operational
NORAD ID: 61020 Int'l Des: 2024-159 Owner: GEESP Country: CN Constellation: geesatcom
LEOCIRCULAR

Über Geely Xingzuo 03 zu 10 xing

Beschreibung wird geladen...

Live-Position

3D-Globus wird geladen...

Nächste Überflüge

Höhenverlauf

Altitude vs Time

uPlot chart will show altitude changes over time

Zweizeiliger Elementsatz

1 61020U 24159K 25278.23210719 .00005087 00000-0 55745-3 0 9998
2 61020 49.9983 186.9109 0013263 265.9435 93.9990 14.89098090 58624
Epoch: 5. Okt. 2025 • Age: 18 hours

Aktueller Status

Höhe 602.9 km
Geschwindigkeit 7.56 km/s
Subsatellitenpunkt 12.14°N, 22.26°W
Startdatum 5. Sept. 2024
Alter 1 years
Typ other

Technische Details

Klassifizierung Payload
Masse 130.00 kg
Trockenmasse 130.00 kg
Gesamtmasse 130.00 kg
Länge 1.00 m
Durchmesser 0.50 m
Spannweite 2.00 m
Form Box + 2 pan
Hersteller TZXK
Bus-Typ GeeSat1
Phasenstatus In Orbit
Besitzer/Staat GEESP/CN

Große Konstellationen

Loading constellations...